星链-36558(STARLINK-36558)

导读

STARLINK-36558是美国太空探索技术公司(SpaceX)于2026年1月18日发射的星链(Starlink)低轨通信卫星,属于星链星座组网卫星之一。该卫星运行在约550公里近地轨道,采用Ku/Ka频段与相控阵波束技术,可提供高速低延迟的全球卫星互联网服务,重点填补偏远及网络覆盖不足区域的接入缺口,助力全球互联覆盖与数字包容发展。

基本信息
目录编号:
67499
目录名称:
STARLINK-36558
国际标识:
2026-012G
轨道中心:
EARTH
卫星名称:
星链-36558
卫星全名:
星链-36558(STARLINK-36558)
卫星状态:
在轨 (已飞行230 天)
发射日期:
2026-01-18 UTC
国别 :
美国 (US)
星等 :
--
轨道信息
数据来源 国际轨道数据 AOE轨道数据
星历时间 2026-09-05T09:30:10+0800
13小时前
查看轨道信息
2026-09-02T02:00:00+0800
3天前
查看轨道信息
半长轴 6861.15km 6861.062km
偏心率 0.0001691 0.0001272
轨道倾角 42.998° 43.003°
近地点辐角 288.907° 280.224°
升交点赤经 21.495° 40.205°
平近点角 71.160° 201.503°
近地点 481.852km 482.052km
远地点 484.174km 483.798km
周期 94.266分钟 94.264分钟
每日圈数 15.275921 15.276217
详细信息
固有亮度:
5
最大亮度:
2.5
卫星平台:
Starlink V1.0
覆盖范围:
全球
运营商:
太空探索技术公司
运营商所在国:
美国
制造商(研发单位):
太空探索技术公司
制造商所在国:
美国
使用方式:
暂无
卫星简介
Starlink 计划是 SpaceX 推出的全球卫星互联网项目,通过发射低轨道卫星,为全球尤其是偏远地区提供高速、低延迟的互联网服务。自 2019 年起,Starlink 已部署数千颗卫星,旨在缩小全球数字鸿沟,推动互联网普及。该项目还为军事、航空等行业提供通信支持,带来广泛经济效益。
2D轨道图
3D轨道图
轨道高度分析图
轨道倾角分析图
轨道综合分析图
查看轨道综合分析图
交会数据列表
事件ID 空间交会对象 最接近时刻(TCA) 交会距离 交会风险概率(CRP) 交会风险指数(CRI) 操作
CDM_260908-020805-560506-749921
2026-09-08T
02:08:37+0000
1.158 km
极远距离
6.075153E-6 低风险 0.51
CDM_260908-003405-560506-749921
2026-09-08T
00:34:28+0000
1.552 km
极远距离
2.355485E-6 低风险 0.42
CDM_260908-060405-560506-749921
2026-09-08T
06:04:01+0000
1.669 km
极远距离
1.90503E-6 低风险 0.41
CDM_260906-182406-469806-749921
2026-09-06T
18:24:47+0000
2.746 km
极远距离
1.361815E-6 低风险 0.38